Wind_Speed
7 6 4 3 4 7 6 1 3 3 3 4 5 5 6 6 11 12 10 9 2 4 9 6 13 22 25 24 21 29 37 30 26 28 22 19 23 27 31 33 35 36 38 44 47 49 50 51 48 44 42 42 42 42 41 37 31 26 24 28 36 42 44 44 42 42 46 49 50 49 47 45 46 46 43 40 41 42 40 38 39 41 38 35 35 37
5 5 5 6 7 8 4 4 5 2 1 3 4 6 7 4 10 13 11 11 3 0 8 8 13 24 26 26 22 23 27 22 19 19 16 19 24 26 29 31 34 37 41 48 50 50 51 51 49 46 43 41 41 42 42 40 36 32 27 24 28 37 44 45 44 45 49 53 53 51 50 49 49 49 47 44 43 42 42 41 41 41 40 38 36 37
5 3 8 7 5 4 2 6 6 3 2 2 3 5 7 4 7 11 10 10 3 2 7 9 11 22 28 27 22 18 17 19 23 13 15 21 23 25 27 30 35 40 43 47 48 48 49 49 49 49 47 43 39 39 42 41 38 36 33 29 27 30 40 46 46 46 49 52 53 53 52 51 51 50 48 47 44 42 43 43 42 41 41 40 38 39
5 6 7 3 1 2 3 4 5 3 2 2 4 4 7 7 5 7 9 12 9 5 5 4 7 15 23 25 17 18 17 15 22 11 24 25 22 23 27 32 37 40 41 44 46 47 49 49 50 50 50 47 40 37 40 41 38 38 37 34 30 28 34 43 47 48 49 50 50 51 50 47 48 49 47 46 45 43 43 44 43 42 42 42 40 41
8 8 3 4 4 2 2 6 4 3 3 3 6 5 7 9 7 8 9 11 14 14 4 3 6 9 16 24 15 16 18 12 19 11 20 23 23 26 31 35 37 40 41 43 44 45 47 48 50 50 50 50 43 36 37 41 40 39 39 38 34 30 31 38 45 48 49 49 48 47 47 46 46 46 47 48 48 46 46 46 45 44 43 45 43 42
8 6 2 4 4 3 0 6 2 1 4 4 5 7 9 10 10 10 11 8 10 15 4 7 6 10 14 26 19 14 16 14 17 9 14 17 22 26 30 32 34 38 41 42 43 44 47 48 51 51 50 50 47 37 33 36 40 41 40 39 37 35 32 33 41 47 48 49 50 47 46 48 49 48 50 52 52 50 50 49 48 46 45 47 47 45
4 3 3 3 4 3 2 5 4 3 1 5 3 5 7 6 7 9 9 6 5 13 11 5 5 11 13 23 20 13 16 16 12 7 11 13 19 23 25 29 33 36 38 40 40 43 48 51 53 53 50 49 48 42 33 30 32 38 42 39 36 37 35 33 35 43 47 49 51 52 51 51 52 54 55 55 55 53 51 50 50 48 46 47 48 48
2 6 6 3 2 2 3 4 3 4 4 4 4 1 5 6 8 10 7 5 5 12 16 5 4 7 12 19 14 8 13 13 6 8 10 13 19 21 24 28 32 35 35 35 37 41 46 50 53 53 50 47 48 45 38 33 30 32 39 41 37 35 36 35 33 37 47 52 52 53 55 55 53 54 56 56 55 53 52 52 52 51 48 48 49 49
1 4 5 4 4 1 3 4 2 4 3 5 6 6 8 7 9 9 5 7 7 9 12 8 4 5 11 14 8 4 9 7 6 9 10 14 19 22 25 30 34 35 35 34 35 39 43 47 50 51 51 48 47 46 42 38 34 30 32 38 39 37 37 36 35 34 42 52 56 55 56 58 58 55 53 53 53 52 53 53 53 52 51 49 49 50
2 4 5 3 4 3 2 2 2 4 1 6 8 8 7 6 7 7 5 5 5 6 11 12 6 4 12 14 7 4 5 5 7 8 8 10 15 22 28 32 34 36 38 37 37 39 41 43 45 47 49 48 45 44 43 41 39 35 31 32 36 37 38 38 36 35 36 47 55 58 57 57 59 58 54 51 51 51 52 53 54 54 54 52 50 51
6 9 6 0 2 4 2 2 3 6 3 5 5 7 9 8 6 4 3 1 1 6 11 10 2 2 13 12 4 3 2 6 5 7 10 11 16 25 32 32 32 36 39 40 40 40 42 42 43 45 46 46 44 43 43 43 42 40 33 30 32 34 35 37 36 35 34 42 52 57 60 59 57 58 56 53 51 52 52 53 55 56 56 55 52 51
8 8 2 3 4 3 2 3 3 6 5 8 5 6 8 7 5 4 4 2 2 8 11 9 5 8 15 9 5 6 4 7 6 9 10 11 15 25 31 30 32 37 40 41 41 42 46 47 48 49 47 45 44 44 44 44 43 42 37 32 31 32 33 35 35 34 32 37 49 55 60 62 58 56 58 58 54 53 54 53 54 57 58 57 55 53
5 4 2 2 6 12 6 3 5 2 7 8 4 4 4 4 5 6 5 3 4 9 14 14 10 10 15 9 6 5 6 6 5 8 10 10 13 23 28 27 30 36 39 38 37 39 43 47 51 52 50 47 45 44 45 45 44 42 40 35 31 31 33 33 32 33 31 32 44 53 57 60 59 56 57 60 58 54 54 53 53 57 59 59 58 57
5 3 4 2 3 12 9 4 5 4 6 6 1 2 3 4 5 6 6 7 8 10 20 20 11 9 12 4 2 3 3 6 9 14 17 18 19 24 27 25 26 32 36 35 35 36 40 45 49 51 52 49 45 45 45 45 43 41 40 37 32 31 31 31 29 30 31 30 38 48 55 58 59 58 55 55 57 55 54 54 54 56 59 60 60 60
4 4 3 1 0 6 7 5 2 3 7 5 2 3 2 3 2 4 5 9 10 11 20 19 8 8 9 0 4 2 6 15 24 29 32 34 37 39 40 40 40 42 41 40 39 40 44 46 48 52 53 50 45 44 44 45 44 41 40 40 36 34 32 30 25 25 28 28 32 43 52 56 58 61 59 55 55 54 53 54 55 55 58 60 60 61
1 5 4 0 3 7 5 2 3 3 7 3 1 3 2 3 2 4 7 12 12 10 13 10 5 10 12 7 4 8 13 22 32 37 39 43 46 48 47 48 50 49 46 43 40 40 45 46 48 52 53 50 46 42 43 44 43 43 42 41 40 38 34 28 21 21 27 27 28 38 48 55 56 58 60 58 57 56 55 54 54 55 56 58 59 59
1 4 3 2 3 8 4 4 2 3 4 2 2 2 3 4 4 3 7 11 10 9 8 6 9 13 13 10 7 15 21 25 27 27 27 32 37 38 37 39 42 44 44 42 38 39 45 48 52 55 55 53 48 42 42 44 42 42 43 43 43 40 36 29 20 19 26 28 27 36 44 53 57 57 58 58 57 57 57 55 55 55 55 56 57 58
1 6 4 2 2 3 6 11 3 3 3 3 4 4 4 4 2 2 4 6 6 8 6 6 14 18 14 8 6 16 24 25 19 15 17 24 29 31 33 37 39 41 42 40 37 38 42 45 49 54 56 55 49 42 40 41 41 42 43 44 44 41 38 34 24 20 26 29 28 33 41 48 53 54 56 56 55 54 54 55 55 55 55 55 56 57
1 6 5 4 3 2 6 7 3 3 5 3 4 7 4 3 3 3 6 7 7 9 9 8 14 18 12 8 11 18 21 19 16 15 19 22 24 27 33 38 40 40 40 39 37 37 38 41 44 49 54 54 49 42 39 39 39 41 42 44 45 43 39 36 30 25 27 29 28 27 35 44 49 51 54 56 55 54 53 53 54 53 54 54 54 56
1 3 5 2 5 3 4 4 2 6 3 4 2 4 2 1 3 3 4 6 6 9 11 8 11 13 7 9 16 18 16 16 17 18 19 20 23 30 34 36 39 38 37 37 37 36 36 38 41 46 52 54 49 41 38 38 37 39 42 44 45 45 41 38 35 32 32 30 28 27 27 36 45 47 50 54 55 55 55 55 54 53 53 53 54 55
1 1 6 5 5 6 3 1 2 6 4 2 3 4 3 2 3 4 5 5 3 6 8 7 11 12 6 8 12 14 16 19 20 20 18 19 26 35 37 37 38 37 36 38 38 37 36 37 41 46 50 53 49 41 37 36 35 37 41 43 45 46 45 43 40 39 37 33 29 29 28 28 34 39 45 50 51 53 55 54 53 53 52 51 53 55
1 1 5 10 9 5 3 4 4 3 1 2 1 4 3 3 4 6 7 5 3 6 7 8 13 13 5 3 8 13 16 18 20 20 18 22 29 36 39 39 38 37 38 39 39 39 38 36 41 46 50 52 48 41 36 35 34 36 40 43 45 46 47 47 46 45 42 38 32 30 29 28 29 32 38 45 50 52 53 54 53 53 53 52 53 55
1 2 2 8 8 5 9 8 2 5 4 3 3 2 1 2 3 4 8 7 5 8 8 7 14 12 3 2 9 13 16 20 25 25 21 26 33 36 40 41 40 40 41 40 40 41 40 38 41 46 49 50 48 41 35 34 33 35 39 43 44 45 48 49 50 49 46 43 38 31 29 30 31 31 33 40 48 53 54 55 54 52 53 54 54 54
2 2 1 6 7 5 6 3 5 7 5 5 2 2 2 4 5 6 8 8 6 8 8 6 11 10 3 5 12 15 19 24 31 33 29 31 36 37 40 42 41 43 44 42 42 42 40 40 44 48 48 48 48 42 35 33 34 35 38 42 44 44 46 49 52 51 49 47 44 36 28 28 31 32 33 37 44 51 54 55 55 53 53 52 53 53
0 1 2 4 8 7 4 3 0 1 3 2 1 5 7 10 11 9 7 6 4 7 11 9 9 10 8 10 13 16 20 21 26 35 36 33 36 39 41 41 43 46 46 44 43 42 42 44 48 49 48 48 47 43 36 32 34 36 38 41 44 44 45 47 51 52 50 49 47 43 34 27 29 32 34 36 41 48 51 52 53 53 53 52 51 53
1 1 2 1 5 7 6 6 6 7 6 4 4 9 13 15 13 10 6 5 5 8 12 10 10 14 15 15 16 17 19 19 23 32 37 36 39 43 43 44 46 47 47 46 44 42 44 48 50 49 49 49 47 44 39 35 35 37 40 42 43 45 46 46 50 51 50 49 48 46 41 32 30 33 35 36 39 45 49 50 52 53 52 52 52 52
2 0 1 5 7 7 7 9 8 8 8 7 8 11 16 17 14 9 5 6 9 9 10 11 14 20 20 18 19 19 19 21 21 23 29 35 41 44 47 51 53 54 54 51 47 47 49 51 52 51 50 50 48 45 40 37 37 39 41 44 43 44 46 47 48 49 49 49 49 47 45 40 34 32 34 36 37 43 48 50 52 53 53 53 52 52
3 1 5 10 11 9 9 11 11 10 10 9 9 12 17 18 15 10 8 11 12 9 9 13 17 20 20 19 21 22 21 20 18 18 25 34 41 47 52 57 59 60 60 57 53 53 54 54 53 52 50 49 48 45 42 40 40 41 43 45 45 44 45 47 47 48 48 49 49 48 46 45 41 33 32 36 36 41 47 50 52 53 53 53 53 55
2 3 7 9 11 9 8 11 11 10 10 8 9 15 18 18 16 13 13 16 13 8 12 18 20 20 19 19 21 22 20 20 21 26 33 40 45 51 54 56 56 58 60 60 58 57 57 57 56 53 51 49 46 44 45 44 42 43 45 47 47 46 46 47 47 47 47 48 48 48 46 46 46 38 30 34 37 40 44 48 51 52 52 52 54 55
2 2 5 6 9 8 8 10 10 9 9 8 12 18 18 17 18 15 15 16 13 12 18 22 22 20 18 17 19 24 29 31 32 36 41 42 45 49 52 53 55 56 59 60 61 60 59 58 57 52 48 47 47 46 46 46 44 45 46 47 48 48 48 48 46 45 46 47 47 47 45 45 49 43 30 31 37 42 44 44 48 51 51 51 51 52
1 2 3 3 6 8 7 8 8 7 7 10 17 20 16 14 15 12 12 12 11 14 21 23 19 16 15 16 21 30 39 39 33 32 36 40 44 47 49 52 56 57 61 65 64 62 59 56 54 51 48 47 48 48 46 46 47 47 47 47 47 48 49 47 45 45 46 46 46 45 44 44 49 47 32 29 34 40 44 43 45 48 49 50 50 50
1 2 2 2 3 7 6 7 9 9 9 12 16 13 8 8 9 9 11 11 12 17 22 19 14 12 13 15 20 27 34 33 27 25 32 41 48 51 50 55 62 62 61 62 59 55 53 51 48 46 47 47 48 49 48 47 48 48 47 46 45 47 49 46 44 45 46 45 44 43 42 43 48 48 33 27 31 36 41 43 44 46 48 49 49 49
2 2 1 1 2 6 9 10 9 9 8 7 6 2 3 8 11 13 14 13 14 16 16 12 11 14 16 17 19 22 25 28 27 27 33 43 53 59 62 63 62 57 53 53 54 53 52 52 50 48 48 46 45 45 45 43 45 45 44 43 43 46 49 47 47 47 46 45 43 41 41 42 47 46 32 26 30 33 38 42 43 44 46 49 48 47
3 3 1 1 1 6 11 10 7 7 5 4 2 4 7 11 13 15 17 17 15 14 14 14 15 19 19 18 20 22 25 34 41 42 45 52 56 57 58 57 54 55 62 69 71 72 70 68 68 69 68 65 60 56 51 46 43 41 41 43 46 48 49 50 50 49 47 45 43 40 39 40 45 43 29 24 29 32 37 40 43 44 44 46 46 46
3 3 1 1 2 4 7 6 6 5 4 5 9 11 13 14 13 16 18 17 15 15 17 19 19 21 20 21 26 29 33 47 64 65 56 51 54 49 45 53 64 69 75 78 74 72 70 64 64 67 69 70 69 67 64 61 59 58 58 55 52 52 53 53 52 50 46 44 42 39 37 38 43 41 25 20 25 31 37 40 43 45 45 45 45 45
3 3 2 1 1 2 3 2 3 5 6 11 15 14 11 9 9 12 13 14 14 15 17 18 20 21 22 27 33 36 41 53 66 73 64 45 40 45 46 53 62 62 60 60 56 55 55 53 53 55 55 57 58 57 57 60 62 64 67 64 58 56 56 56 53 49 44 42 41 38 35 36 41 38 24 16 22 28 36 41 43 45 46 45 43 43
6 3 1 1 2 2 2 3 5 7 10 11 10 7 5 5 6 7 9 14 15 14 15 16 19 22 24 30 37 40 43 40 35 52 73 63 43 44 51 52 51 48 48 50 49 50 51 51 53 54 51 52 53 52 51 52 52 52 56 58 55 54 55 54 50 46 41 40 39 36 33 34 38 36 24 15 19 26 34 41 43 44 45 45 43 42
6 4 3 2 2 1 1 4 5 5 6 6 6 7 9 10 8 5 8 13 12 12 18 18 18 23 22 26 38 39 34 26 12 26 66 80 64 57 61 61 56 50 48 49 50 53 54 51 51 52 50 49 50 51 50 48 46 45 48 50 48 47 49 48 45 42 39 39 39 35 32 33 36 34 24 16 18 23 32 39 42 43 44 44 42 40
5 4 3 3 2 0 1 4 5 4 6 6 7 11 15 15 13 8 9 11 8 15 28 25 20 24 24 26 36 30 18 14 10 21 54 76 74 71 68 65 62 59 56 54 53 56 57 54 53 54 53 51 51 50 48 46 44 43 45 47 46 46 47 44 42 40 38 38 39 35 32 33 35 32 25 17 18 21 28 36 40 41 42 42 41 38
3 2 2 3 5 4 3 4 4 4 5 5 9 15 16 15 13 9 8 10 11 22 35 32 24 27 30 30 30 20 10 11 16 33 59 72 72 73 68 61 61 62 62 62 60 59 60 58 56 54 52 52 52 50 47 45 44 44 44 43 43 46 46 43 40 39 38 39 39 36 34 33 33 32 26 17 16 21 26 32 36 38 40 41 41 39
3 2 3 4 5 6 6 5 5 5 6 9 14 19 17 11 8 7 8 12 20 27 35 36 30 27 30 33 27 18 22 31 37 49 64 65 62 67 65 61 62 61 59 61 61 59 59 57 55 52 49 49 50 50 47 44 44 44 43 40 40 44 45 43 40 38 38 40 40 37 35 34 32 31 28 19 15 20 26 32 35 36 38 39 39 40
2 1 2 3 4 4 4 4 4 7 6 7 11 17 16 7 3 8 14 22 28 31 34 37 35 32 35 38 36 33 39 49 51 54 57 56 56 62 63 62 63 62 61 61 62 62 62 60 58 56 54 51 50 49 46 43 44 44 42 41 41 41 42 44 44 42 41 43 42 38 35 33 32 31 29 23 15 17 25 32 35 36 37 37 39 40
3 2 2 3 3 2 2 3 5 6 4 3 8 12 10 5 8 16 22 26 29 31 34 40 45 47 45 42 44 46 49 52 53 51 52 53 53 55 57 57 57 59 61 63 63 64 63 61 58 57 57 56 55 51 46 43 45 45 42 40 39 36 34 35 38 40 42 43 41 37 34 33 32 31 30 27 20 17 22 29 35 38 38 38 39 41
3 3 2 2 2 2 3 4 3 5 8 15 15 10 9 14 20 23 21 20 26 32 34 40 51 55 48 40 43 48 48 48 50 50 52 56 55 53 54 55 55 57 59 60 63 63 60 58 57 56 56 57 56 52 49 45 45 45 42 36 31 29 30 30 31 36 39 40 38 35 33 33 32 31 30 30 24 20 22 27 33 37 38 39 40 41
4 5 5 5 5 4 6 7 10 14 21 26 23 20 23 25 23 22 22 23 28 34 37 41 47 50 45 39 41 46 44 42 45 48 50 53 55 54 54 55 55 54 55 56 58 60 58 56 56 56 55 54 52 49 48 46 45 42 37 31 28 27 28 28 29 32 34 34 33 32 32 33 32 31 33 32 27 23 24 27 32 36 38 39 42 44
6 8 7 5 5 6 10 15 19 21 22 23 25 28 28 22 16 19 28 32 33 36 40 40 37 37 41 42 42 44 43 41 45 49 49 50 53 54 54 55 54 53 55 56 56 57 58 55 53 54 55 53 51 48 45 43 41 39 35 31 30 28 26 25 27 29 29 30 31 32 34 33 32 33 35 34 28 25 26 28 32 35 37 40 43 45
6 8 8 6 6 6 7 10 14 17 19 23 29 30 26 20 18 23 30 35 37 37 37 36 33 32 38 42 39 40 43 45 49 52 51 49 52 53 53 53 55 56 56 54 51 53 56 54 52 53 54 55 53 50 46 42 39 37 34 31 29 27 25 25 27 29 29 30 31 33 33 32 33 36 37 32 27 26 27 29 31 34 38 41 44 45
4 4 5 6 8 7 8 12 18 24 27 28 26 18 15 20 27 31 34 35 36 35 30 30 35 36 37 38 38 39 44 46 45 47 50 50 50 52 53 52 53 55 55 53 50 50 52 54 54 53 53 54 53 50 47 43 40 36 34 32 29 26 25 25 26 27 28 29 31 33 34 34 35 36 34 30 27 27 29 31 32 35 39 43 44 46
5 3 3 4 5 8 11 15 17 17 20 25 20 9 9 21 29 34 36 34 34 35 31 28 30 33 34 36 38 40 45 46 41 40 46 50 50 51 52 52 51 51 51 51 50 49 49 51 53 53 52 51 50 49 47 43 40 37 35 33 30 28 27 26 26 27 29 30 32 35 36 36 35 32 29 27 26 27 30 32 34 35 39 43 44 45
7 6 5 3 4 8 9 10 8 4 8 21 24 16 19 29 31 31 34 34 30 32 33 31 30 30 30 33 36 38 42 46 42 41 45 50 52 52 53 52 51 50 49 49 50 50 48 49 50 52 52 50 49 48 45 40 38 36 33 30 28 25 25 25 26 27 29 30 32 33 33 32 29 26 25 25 25 27 30 32 33 33 36 40 43 43
14 11 8 6 7 11 15 15 12 7 10 22 27 24 27 33 32 30 32 32 29 28 29 31 32 32 31 33 35 35 38 42 43 42 46 51 53 53 51 49 47 47 49 51 52 53 51 49 51 54 53 50 49 46 42 38 37 35 32 29 25 21 21 22 23 25 28 29 28 27 26 26 25 24 23 24 24 26 30 34 36 34 33 37 40 40
Wind_Direction
22 13 349 276 275 279 285 199 193 215 216 280 303 283 288 297 291 293 289 287 346 324 304 314 301 299 299 298 303 306 306 307 307 311 329 7 23 23 24 24 22 21 16 13 12 9 6 4 5 7 8 8 10 11 9 4 354 333 301 269 254 248 246 242 232 223 220 219 219 222 223 221 222 225 224 220 218 215 211 212 216 219 216 213 212 212
23 11 289 251 237 255 271 128 131 107 93 299 303 300 306 287 279 290 291 293 343 36 298 336 318 300 297 296 300 302 302 302 305 316 350 29 42 37 29 22 17 14 10 8 7 6 6 4 4 5 6 6 4 5 4 1 358 350 333 304 275 255 247 245 236 225 223 222 219 220 220 217 215 220 223 220 217 214 208 208 213 216 216 212 209 209
1 313 265 258 236 255 333 105 119 115 101 288 284 306 308 289 283 292 291 296 331 134 304 339 322 297 294 293 296 295 290 293 303 333 51 47 42 38 24 18 14 10 8 5 4 3 3 3 3 2 2 3 1 0 360 358 357 353 345 332 308 273 252 248 242 231 225 226 224 220 219 218 214 215 220 220 218 214 206 206 210 214 215 212 209 207
322 279 259 267 312 315 337 38 77 75 77 214 260 297 292 296 309 295 304 316 315 278 267 302 291 286 289 290 292 289 285 293 303 349 72 56 41 36 22 18 13 9 5 2 1 1 1 1 1 360 359 360 359 358 357 356 356 353 348 341 327 300 267 252 247 239 230 227 227 226 223 220 215 212 214 217 219 217 207 204 209 212 214 212 209 206
275 278 289 47 43 73 294 326 14 3 328 232 229 246 265 287 287 273 304 327 316 299 258 158 275 276 285 289 291 293 296 306 304 334 67 54 35 29 20 19 14 8 4 360 359 359 359 0 359 358 357 357 357 357 354 351 351 351 349 344 335 319 290 264 253 246 237 230 228 229 227 223 219 215 213 215 219 217 208 205 206 209 213 212 210 207
274 281 354 46 20 63 29 303 302 213 317 300 242 225 241 274 283 284 310 338 327 305 317 78 317 289 289 289 291 301 303 302 305 341 65 46 29 26 21 18 11 7 4 0 360 359 360 359 358 357 355 354 354 353 351 348 347 347 346 344 338 329 312 284 261 248 239 232 229 227 224 220 216 213 212 214 216 213 207 205 204 205 211 213 211 208
280 309 37 60 308 328 1 299 252 165 28 309 263 203 225 260 281 286 303 328 320 291 303 33 308 285 288 285 289 301 296 293 309 29 62 32 26 26 21 16 8 5 2 1 3 1 0 359 357 355 352 352 351 349 347 346 345 343 342 343 338 331 324 307 280 255 241 234 230 227 225 221 216 212 211 212 213 212 209 206 203 203 209 214 213 209
299 333 8 32 324 329 337 306 248 140 114 262 261 344 307 295 286 283 285 288 274 282 296 303 227 269 280 278 289 295 283 292 334 44 40 20 22 21 18 13 5 4 2 2 4 1 360 358 356 353 349 349 350 349 347 345 346 340 337 339 335 330 327 320 304 272 249 237 230 227 226 225 221 216 212 211 212 213 211 207 205 203 207 214 216 212
305 327 328 323 329 304 275 286 221 118 118 259 290 327 307 288 275 279 279 274 282 290 294 288 252 265 270 280 319 313 279 311 14 35 20 6 13 15 10 5 2 3 3 2 1 358 358 357 355 352 348 346 347 348 347 343 344 340 332 333 332 328 327 326 318 293 262 243 233 228 227 227 226 222 217 213 211 211 211 210 208 205 205 212 218 216
236 263 272 273 289 252 257 290 163 112 39 291 315 322 300 288 274 273 268 273 305 296 280 285 280 261 274 289 332 324 298 3 17 22 12 0 13 11 3 0 0 1 0 359 356 354 355 355 354 353 350 347 345 346 345 341 342 339 329 328 329 326 326 327 323 308 279 252 238 231 227 227 226 224 221 218 212 209 210 211 210 208 206 209 216 218
281 288 279 257 274 219 190 343 146 124 23 323 340 340 321 318 311 294 284 289 331 277 274 281 278 298 293 296 346 342 54 79 30 2 359 2 14 5 357 357 358 359 357 354 352 351 352 352 353 354 352 348 345 344 343 340 340 339 332 325 324 326 330 329 322 314 291 260 244 236 229 225 223 221 220 219 214 210 209 210 211 210 208 208 212 217
319 317 309 99 53 50 100 38 94 126 50 14 8 352 328 319 331 321 331 21 269 273 279 292 342 322 290 292 339 329 42 72 33 8 3 7 7 355 352 354 355 356 352 350 351 351 351 352 353 354 353 350 346 344 343 341 339 338 336 328 322 327 336 333 320 312 300 268 249 241 233 227 224 223 221 219 216 212 209 209 210 210 210 209 210 214
321 298 326 115 60 38 41 18 7 60 46 17 338 356 351 322 327 314 327 339 260 273 283 297 334 306 274 289 340 350 42 35 2 11 10 4 353 346 349 354 353 352 349 348 348 349 351 352 352 353 352 349 346 344 343 341 339 338 338 333 325 327 336 336 320 307 305 281 254 245 238 231 225 222 220 219 218 216 213 210 209 210 210 210 211 213
322 290 13 14 36 41 58 65 0 337 0 347 266 77 15 333 329 310 317 307 280 282 289 299 325 297 277 301 59 92 57 338 340 359 358 352 346 344 348 352 351 349 348 346 345 347 350 351 352 352 351 347 344 343 342 341 338 337 337 335 329 326 331 339 328 305 303 291 261 248 243 234 226 223 220 216 216 217 216 213 210 210 211 212 213 214
329 298 9 32 87 50 58 82 126 286 324 316 181 98 56 58 359 298 297 292 291 290 290 300 311 286 295 46 134 94 348 343 349 351 350 349 346 346 347 348 348 346 345 344 344 346 347 348 350 350 349 345 341 340 341 341 339 337 337 335 331 327 327 338 334 305 302 299 269 251 244 237 228 225 223 220 219 217 217 216 213 211 213 214 215 217
314 274 262 10 94 96 82 111 166 302 324 299 128 56 56 115 177 261 269 265 277 282 280 295 278 270 299 313 338 358 349 349 351 350 351 348 344 345 345 344 342 338 336 337 340 343 344 344 346 347 347 343 337 337 339 340 339 338 337 334 332 329 324 330 332 308 310 312 280 254 245 240 232 225 223 223 223 221 220 219 216 213 214 215 216 217
346 277 267 338 50 105 80 330 280 281 300 294 18 13 274 253 200 235 274 257 266 277 274 299 283 279 299 308 343 2 348 343 347 349 346 337 335 338 338 335 332 329 327 328 333 340 340 339 342 344 344 340 335 333 336 339 338 337 338 336 334 332 324 322 326 312 315 321 292 259 247 242 234 225 221 222 223 222 222 222 221 217 216 217 218 217
285 281 255 205 200 121 5 345 2 108 71 37 333 300 285 300 223 198 284 266 268 276 277 306 292 291 300 296 358 2 341 333 335 335 328 325 330 332 328 326 324 322 321 321 326 333 335 336 338 341 341 338 333 328 330 337 338 336 338 338 337 336 330 323 320 312 312 320 305 268 248 243 237 226 222 222 223 222 220 220 221 219 218 219 220 220
348 305 280 154 135 320 348 11 52 55 61 92 302 311 330 351 339 324 307 302 306 292 288 300 290 290 298 308 338 342 328 322 324 323 322 324 327 324 321 321 319 318 316 316 319 324 328 332 335 338 338 335 331 326 327 335 339 338 337 338 337 336 334 329 321 314 309 313 312 284 251 243 241 231 223 222 223 223 221 219 219 219 219 220 220 221
70 306 273 138 82 351 346 44 8 312 341 102 51 338 341 17 322 308 281 286 306 292 286 297 285 281 304 324 323 324 317 317 320 320 320 319 317 317 317 316 315 312 310 310 312 314 320 328 331 334 335 333 330 324 325 332 338 339 338 338 338 335 334 333 327 321 314 309 311 302 272 250 244 237 226 222 222 223 223 222 221 220 220 221 221 222
69 215 268 292 0 353 341 96 290 306 327 32 34 6 4 12 329 301 273 265 280 278 287 305 282 275 309 322 308 313 315 316 317 316 314 311 312 314 314 313 311 308 306 308 308 307 313 322 326 331 333 331 328 323 323 329 335 339 339 338 338 337 335 335 333 329 323 316 310 306 296 276 257 244 232 224 223 224 224 223 223 221 220 220 221 223
107 179 268 292 317 337 297 256 258 267 228 170 87 31 3 341 341 321 296 284 278 279 293 301 284 284 315 312 300 315 314 312 314 311 307 308 311 313 313 313 309 306 307 307 305 304 309 315 322 327 330 328 325 322 320 324 330 336 339 337 337 337 337 336 334 332 329 324 317 305 300 296 279 259 242 230 226 226 225 224 224 223 222 221 221 223
141 124 262 281 289 285 282 288 240 165 142 113 92 49 333 306 337 304 286 297 297 286 289 279 276 285 327 318 305 311 308 309 310 307 306 309 312 314 313 312 309 308 308 308 305 303 304 310 318 323 326 324 322 319 317 319 325 331 334 335 334 334 336 336 334 331 330 330 327 315 302 300 293 274 254 239 229 225 225 225 225 224 223 223 223 223
97 71 338 289 289 276 275 290 135 139 89 57 31 336 323 296 287 263 269 289 287 288 297 275 268 281 329 319 304 304 306 308 308 307 309 311 313 313 312 312 310 309 309 309 306 303 302 307 315 319 320 320 318 316 312 312 319 326 329 331 331 330 332 334 333 331 329 329 331 328 313 305 302 284 261 248 236 226 223 223 223 226 226 224 223 223
11 358 25 331 315 314 320 343 334 272 27 55 314 322 311 292 292 287 282 288 282 289 295 285 277 291 308 307 300 304 306 305 305 308 310 311 310 311 311 312 311 309 309 308 306 303 302 306 311 314 315 315 314 313 309 308 313 321 326 328 328 328 328 330 331 330 328 325 327 333 329 317 309 290 263 251 242 231 225 223 222 224 226 226 225 224
249 258 92 46 301 302 305 303 297 311 328 340 344 329 309 300 302 303 305 304 290 287 289 284 281 288 296 300 300 303 304 302 304 308 309 310 309 310 312 312 311 308 306 306 304 302 301 304 307 309 310 311 311 310 306 304 307 316 323 325 325 325 325 327 328 328 327 323 320 327 333 330 319 296 267 251 244 235 229 227 225 225 227 229 229 228
123 167 214 216 231 248 264 274 285 300 301 307 327 315 298 295 298 300 304 288 280 286 286 275 279 290 298 303 304 303 303 303 305 307 309 310 309 311 312 311 309 307 305 303 301 299 300 302 303 305 306 307 308 307 305 302 304 311 318 321 321 322 322 323 324 324 324 322 317 319 327 332 328 305 274 255 245 237 231 229 228 228 230 231 231 230
115 241 243 234 238 243 258 271 281 288 287 295 308 295 285 287 293 295 284 275 281 292 286 278 284 292 297 302 303 303 303 302 303 309 309 309 308 309 308 307 305 304 304 303 300 299 299 300 301 302 302 303 303 304 303 300 300 306 312 315 317 319 319 318 320 320 320 321 317 313 318 326 330 316 281 260 248 237 232 229 228 229 230 232 232 231
133 238 232 238 253 249 248 263 269 275 282 291 286 277 277 283 287 286 278 276 280 279 277 286 291 291 294 300 300 300 302 302 305 310 309 306 304 304 303 302 301 301 301 301 300 299 299 299 299 298 298 299 299 300 301 299 298 303 308 310 312 314 316 315 315 316 317 318 315 312 313 319 325 320 288 262 249 237 232 231 230 231 231 230 231 229
126 229 221 235 266 264 249 255 258 260 273 284 277 272 274 279 281 279 275 276 279 274 276 286 292 291 295 299 299 302 304 302 304 306 305 302 300 300 299 299 298 298 298 298 298 299 299 298 298 297 296 297 297 298 298 297 297 301 304 306 308 310 313 313 311 312 314 314 313 312 310 312 320 321 297 265 250 236 231 232 231 231 230 229 230 229
146 229 220 215 278 283 264 254 258 265 277 280 275 272 272 275 276 276 279 286 292 287 285 291 296 296 296 299 304 308 306 302 302 303 302 302 302 300 298 298 298 297 297 297 297 297 298 298 296 295 295 295 295 297 296 295 296 298 300 302 303 307 310 309 308 309 311 311 311 310 308 308 316 321 303 268 254 239 230 230 231 230 230 230 230 230
209 261 326 37 318 286 280 288 294 298 295 278 271 270 273 278 282 287 291 297 299 292 292 298 302 298 301 308 308 307 303 299 300 304 306 307 307 304 301 299 298 296 295 297 299 301 304 303 302 301 301 299 298 297 295 294 295 296 298 299 300 305 308 304 303 306 307 308 309 308 306 306 313 319 304 267 255 244 233 231 229 229 230 229 228 228
195 204 280 1 316 283 290 303 307 316 319 286 267 292 319 301 302 300 294 292 292 291 295 300 298 296 304 310 307 305 304 300 302 311 314 311 309 306 301 298 297 299 304 310 314 317 317 314 312 312 311 309 308 305 303 301 299 297 297 299 301 304 305 301 301 303 303 306 308 306 305 305 311 316 304 264 252 247 237 232 229 228 227 226 227 228
196 175 200 267 263 284 294 308 325 327 310 268 299 4 324 303 299 293 290 290 287 284 285 288 294 300 304 306 306 305 304 303 305 311 313 309 305 301 299 303 310 316 319 320 319 317 315 311 308 306 302 300 298 298 298 297 297 298 298 301 302 301 301 299 299 301 301 303 305 304 303 303 308 314 302 263 251 246 237 231 228 228 228 226 225 225
185 174 176 215 188 271 299 327 336 304 250 273 308 313 302 293 286 281 282 285 283 282 286 291 297 300 300 302 305 305 309 312 310 310 311 308 304 306 312 318 322 322 321 320 320 317 315 313 310 307 304 300 296 292 290 287 285 287 289 293 296 296 295 295 296 297 297 299 301 301 300 300 306 314 304 262 249 243 237 232 228 227 228 226 225 224
176 179 187 197 199 288 313 329 274 271 291 304 300 297 295 289 287 292 290 290 291 291 292 294 296 300 303 305 307 312 319 319 311 308 311 316 316 320 325 321 317 315 315 316 315 312 311 312 311 309 307 306 303 299 295 290 287 284 283 283 286 288 289 290 291 291 291 293 297 298 296 296 304 313 309 267 246 240 236 233 229 228 227 226 226 225
177 161 157 221 237 239 242 239 261 291 307 298 279 275 282 272 279 297 295 295 295 290 290 296 302 307 310 311 315 322 324 321 309 305 314 324 330 326 321 316 312 310 308 309 308 306 305 305 307 308 307 305 305 304 302 297 293 288 283 279 279 281 283 284 285 286 286 289 293 294 292 293 302 313 313 278 248 238 234 232 229 228 227 225 225 225
189 183 173 209 245 183 233 276 284 293 284 267 262 274 281 284 292 297 293 296 296 295 305 312 311 312 316 318 323 329 328 322 309 302 315 322 327 325 321 319 316 311 307 308 309 306 305 304 303 304 304 303 302 302 303 301 298 292 284 279 276 276 278 280 280 281 283 286 289 291 288 289 298 312 316 289 257 240 232 231 229 227 227 227 225 226
215 223 193 207 245 137 151 264 269 257 254 263 277 282 290 303 313 316 301 298 307 322 324 325 319 319 327 327 325 330 330 321 307 299 312 319 321 320 320 320 318 316 313 311 309 307 308 310 308 303 303 304 305 305 304 303 302 296 286 280 276 273 273 275 275 277 280 283 286 287 285 285 293 308 317 300 268 249 234 230 229 228 229 229 228 229
237 231 190 219 238 217 200 242 259 243 243 254 260 272 288 304 315 320 303 298 322 330 325 324 324 326 329 326 323 325 318 304 298 300 308 313 313 313 315 316 316 315 314 313 313 311 310 312 312 309 305 304 307 308 305 302 302 299 293 286 277 269 268 270 273 276 279 281 283 283 281 281 286 299 313 308 274 255 240 230 229 229 230 229 230 231
261 226 194 202 223 231 230 245 269 262 247 244 254 272 292 311 319 310 289 303 322 324 322 323 327 329 327 322 319 312 299 297 298 300 304 307 308 310 312 314 314 313 312 313 313 314 313 309 309 310 308 304 304 305 304 303 301 299 296 290 279 269 265 266 269 274 277 279 281 279 278 278 281 290 305 309 280 255 243 233 229 230 231 231 231 231
233 228 223 198 204 233 222 214 273 281 253 230 256 288 311 335 321 291 297 311 319 321 324 327 325 326 327 321 312 306 301 301 302 303 304 305 308 309 311 313 315 316 317 317 318 320 320 315 311 312 313 313 312 310 306 302 300 299 297 291 285 281 274 267 266 271 274 276 278 277 275 277 278 283 296 305 288 255 242 234 229 231 234 235 234 233
188 185 252 216 191 226 231 235 270 267 259 328 331 323 325 318 291 300 309 315 319 324 330 328 323 324 327 319 310 308 306 306 308 309 308 307 308 309 310 313 315 317 319 321 323 325 324 319 316 315 315 316 318 317 313 306 303 303 301 295 292 292 286 274 267 267 269 272 275 274 273 277 279 278 287 298 290 259 242 234 230 230 232 233 233 232
199 171 215 246 235 223 214 219 227 232 278 313 319 306 292 297 304 312 318 321 324 328 331 326 322 323 324 315 309 310 308 306 311 314 313 313 314 314 315 316 318 321 323 324 326 329 328 324 322 322 321 321 323 322 318 315 311 308 306 303 299 292 285 276 267 264 266 270 272 272 273 279 281 277 282 293 288 262 243 235 231 231 230 231 232 232
219 187 198 238 246 227 219 241 264 272 284 295 296 288 294 303 310 315 319 325 330 329 327 324 320 322 324 318 311 311 309 306 310 314 315 316 317 318 318 319 320 323 326 327 329 333 334 330 328 330 329 329 330 328 325 324 320 314 310 312 311 301 290 282 274 270 270 270 272 274 277 281 279 276 281 289 283 261 243 234 230 230 230 230 230 229
236 208 202 231 257 263 258 257 264 272 280 287 290 292 298 306 313 316 318 324 328 325 323 322 317 318 325 323 314 310 310 309 312 315 315 317 318 319 320 321 322 326 329 330 330 334 337 334 333 333 333 333 335 337 335 332 328 324 322 321 318 312 304 295 286 280 277 276 277 279 280 278 274 275 283 286 275 256 242 233 229 229 229 228 225 223
253 215 209 242 267 275 269 256 263 278 286 290 293 296 300 306 312 317 322 324 324 322 325 326 321 319 324 324 314 307 309 314 316 316 317 319 321 322 323 324 326 328 330 331 331 333 336 338 337 336 335 336 338 339 339 337 334 332 330 326 322 318 312 302 293 286 283 282 283 281 278 274 272 277 283 280 265 250 240 232 229 229 228 226 221 218
257 190 190 238 248 251 264 270 277 286 288 289 291 293 298 303 308 315 322 324 323 324 327 329 328 327 326 324 320 313 313 318 318 315 317 322 324 325 326 326 327 329 330 332 333 334 335 338 340 340 339 340 340 339 337 337 336 333 328 322 318 315 309 299 292 288 284 282 281 277 274 274 276 279 279 271 257 246 237 229 226 228 228 226 222 218
229 210 193 224 250 263 268 273 282 290 293 295 298 304 312 312 314 319 322 324 326 330 333 330 330 332 330 329 330 327 322 323 323 320 323 327 329 331 331 330 329 329 330 332 337 340 338 338 341 344 344 344 345 343 339 337 335 333 331 326 320 312 304 296 290 287 285 282 279 277 276 277 278 276 271 264 254 246 238 229 226 228 229 229 227 225
226 237 230 220 260 267 259 264 278 286 289 294 299 308 315 316 319 319 320 324 330 334 337 334 332 335 336 337 340 335 328 328 330 329 332 337 339 340 341 338 334 332 334 337 341 346 345 340 342 347 349 349 349 347 343 340 338 337 336 333 326 316 305 299 295 291 288 285 281 280 279 278 275 267 261 258 253 246 239 232 229 231 232 230 230 230
220 223 221 210 231 254 260 265 268 258 265 281 291 303 310 313 316 315 317 326 332 334 337 338 337 338 340 345 349 343 332 331 333 335 341 349 352 351 350 347 341 339 342 346 349 351 351 347 347 351 354 353 352 350 347 345 345 345 344 341 335 324 310 303 299 294 289 285 283 281 279 274 269 262 256 252 249 243 235 228 225 227 231 232 232 231
Height
1502 1502 1502 1504 1504 1502 1503 1507 1508 1508 1509 1508 1509 1508 1508 1509 1497 1486 1483 1479 1480 1479 1472 1472 1469 1455 1444 1436 1436 1435 1428 1427 1427 1426 1432 1436 1436 1435 1434 1433 1431 1429 1428 1426 1423 1421 1419 1416 1414 1411 1407 1403 1400 1397 1396 1395 1395 1395 1396 1398 1399 1399 1399 1399 1399 1400 1401 1401 1402 1403 1404 1406 1409 1412 1415 1418 1420 1423 1428 1432 1436 1438 1440 1442 1444 1447
1504 1504 1502 1503 1504 1503 1504 1508 1508 1508 1509 1508 1508 1506 1507 1509 1498 1485 1483 1479 1479 1481 1473 1472 1471 1456 1441 1433 1433 1435 1430 1426 1427 1430 1433 1436 1435 1436 1435 1433 1431 1429 1427 1424 1421 1420 1419 1416 1414 1411 1407 1403 1400 1398 1396 1395 1394 1393 1394 1395 1396 1397 1397 1396 1397 1399 1398 1395 1395 1395 1396 1399 1403 1406 1409 1412 1414 1418 1423 1427 1431 1434 1437 1439 1441 1444
1507 1504 1501 1502 1504 1503 1504 1507 1508 1508 1508 1508 1508 1509 1507 1504 1497 1487 1480 1477 1480 1482 1476 1475 1476 1459 1437 1430 1430 1431 1430 1426 1427 1433 1435 1435 1436 1436 1435 1432 1430 1427 1424 1422 1421 1420 1419 1417 1414 1411 1408 1404 1400 1398 1397 1395 1394 1393 1392 1392 1393 1395 1395 1394 1394 1396 1397 1395 1393 1392 1392 1394 1397 1401 1404 1408 1411 1415 1419 1423 1427 1430 1433 1435 1437 1440
1509 1503 1501 1503 1503 1502 1501 1503 1507 1508 1509 1509 1507 1508 1505 1499 1499 1493 1481 1478 1478 1478 1478 1479 1479 1464 1437 1426 1426 1424 1425 1426 1428 1433 1436 1436 1437 1437 1436 1433 1430 1427 1424 1423 1422 1420 1418 1417 1414 1412 1409 1405 1401 1398 1396 1395 1394 1392 1392 1391 1391 1392 1392 1392 1392 1392 1395 1397 1396 1394 1395 1395 1396 1399 1403 1407 1410 1413 1416 1419 1424 1427 1429 1431 1433 1436
1508 1503 1502 1504 1503 1502 1502 1502 1504 1506 1507 1508 1506 1506 1503 1498 1499 1495 1488 1486 1479 1470 1472 1478 1477 1465 1440 1424 1422 1420 1420 1425 1426 1431 1436 1436 1437 1438 1436 1435 1433 1430 1428 1424 1422 1420 1419 1417 1414 1412 1410 1407 1403 1400 1397 1395 1394 1393 1391 1390 1389 1389 1390 1390 1390 1390 1392 1395 1397 1398 1398 1397 1397 1399 1401 1403 1406 1409 1412 1414 1418 1422 1424 1426 1428 1431
1505 1503 1502 1502 1501 1503 1504 1502 1503 1504 1506 1506 1503 1502 1501 1498 1498 1496 1495 1496 1490 1472 1463 1473 1478 1463 1441 1421 1418 1421 1421 1422 1424 1430 1437 1437 1437 1437 1436 1437 1436 1434 1432 1427 1424 1421 1419 1416 1413 1411 1408 1406 1403 1401 1399 1396 1394 1393 1391 1390 1388 1387 1387 1388 1387 1387 1388 1390 1392 1395 1395 1393 1391 1392 1392 1392 1396 1399 1402 1406 1411 1416 1419 1421 1424 1426
1504 1502 1502 1502 1502 1503 1504 1503 1504 1504 1507 1506 1502 1501 1501 1501 1501 1499 1499 1500 1499 1480 1461 1473 1482 1469 1447 1422 1417 1425 1422 1421 1424 1431 1437 1437 1437 1437 1437 1438 1437 1436 1433 1429 1426 1422 1419 1416 1413 1411 1409 1406 1403 1401 1399 1397 1394 1392 1390 1389 1388 1386 1385 1385 1385 1384 1385 1386 1386 1388 1390 1390 1386 1383 1382 1383 1387 1391 1396 1400 1405 1410 1415 1418 1420 1423
1503 1501 1501 1502 1502 1502 1503 1504 1504 1504 1507 1505 1502 1503 1501 1502 1503 1500 1503 1502 1498 1484 1467 1471 1478 1475 1454 1421 1417 1429 1424 1421 1427 1433 1437 1436 1437 1438 1438 1439 1437 1435 1432 1429 1427 1424 1421 1418 1414 1413 1410 1407 1403 1399 1397 1395 1393 1391 1389 1388 1387 1385 1383 1382 1381 1381 1381 1381 1381 1381 1383 1386 1386 1383 1381 1380 1383 1387 1392 1396 1399 1404 1410 1413 1417 1420
1503 1500 1500 1501 1501 1503 1503 1504 1505 1505 1505 1503 1502 1505 1502 1503 1503 1499 1502 1499 1494 1489 1477 1468 1471 1475 1451 1416 1417 1427 1422 1425 1432 1436 1438 1435 1437 1438 1437 1437 1434 1433 1431 1429 1427 1424 1422 1419 1416 1414 1411 1407 1403 1398 1395 1392 1390 1388 1387 1386 1385 1383 1380 1377 1376 1376 1375 1375 1375 1377 1378 1379 1382 1384 1384 1382 1381 1384 1388 1393 1396 1399 1404 1409 1412 1416
1502 1501 1500 1501 1502 1504 1503 1504 1506 1505 1506 1505 1504 1503 1500 1501 1499 1497 1499 1497 1496 1494 1480 1467 1467 1470 1445 1419 1425 1427 1425 1436 1440 1439 1440 1437 1439 1439 1435 1433 1430 1429 1428 1426 1426 1424 1422 1419 1417 1414 1409 1405 1402 1397 1394 1390 1388 1386 1383 1382 1381 1379 1376 1373 1372 1371 1370 1370 1370 1371 1372 1373 1375 1380 1384 1384 1382 1382 1384 1388 1392 1395 1399 1404 1408 1411
1502 1500 1500 1502 1503 1503 1504 1504 1505 1506 1508 1507 1505 1502 1500 1497 1494 1495 1495 1495 1498 1490 1473 1462 1466 1471 1447 1422 1427 1430 1433 1446 1445 1440 1440 1437 1438 1435 1432 1431 1428 1427 1426 1424 1424 1421 1419 1417 1415 1412 1407 1402 1399 1396 1393 1389 1386 1382 1379 1377 1376 1373 1370 1367 1367 1366 1365 1365 1364 1364 1366 1368 1370 1373 1379 1381 1379 1378 1380 1383 1387 1391 1394 1399 1403 1407
1503 1499 1499 1502 1503 1503 1502 1502 1505 1508 1508 1507 1507 1507 1505 1500 1496 1494 1492 1495 1497 1484 1467 1459 1465 1472 1451 1424 1426 1433 1437 1444 1442 1441 1440 1438 1438 1435 1433 1431 1427 1427 1425 1423 1421 1417 1415 1411 1408 1405 1401 1398 1396 1393 1390 1387 1383 1379 1375 1373 1371 1369 1366 1363 1363 1362 1360 1360 1359 1359 1360 1362 1365 1368 1371 1374 1376 1375 1374 1377 1381 1386 1390 1394 1399 1403
1503 1500 1502 1503 1502 1502 1501 1501 1505 1506 1507 1512 1512 1510 1512 1512 1506 1502 1499 1498 1497 1483 1464 1458 1469 1469 1445 1428 1433 1437 1438 1441 1439 1440 1440 1439 1439 1435 1432 1430 1428 1427 1426 1423 1420 1417 1414 1410 1404 1400 1397 1394 1392 1389 1387 1384 1381 1377 1373 1372 1369 1367 1364 1360 1358 1358 1357 1355 1354 1354 1355 1357 1361 1364 1364 1367 1372 1373 1372 1372 1375 1380 1384 1388 1393 1397
1505 1501 1503 1503 1502 1504 1504 1508 1513 1510 1511 1515 1512 1511 1516 1519 1521 1518 1510 1501 1497 1485 1463 1458 1471 1462 1435 1431 1438 1438 1438 1438 1436 1437 1437 1436 1436 1433 1431 1431 1430 1428 1426 1423 1419 1416 1412 1408 1403 1398 1395 1392 1389 1387 1386 1383 1380 1377 1373 1370 1367 1364 1362 1358 1354 1354 1354 1350 1349 1350 1350 1352 1356 1359 1360 1361 1365 1369 1370 1370 1371 1374 1379 1382 1386 1391
1508 1502 1504 1504 1504 1508 1510 1514 1519 1515 1513 1512 1510 1511 1514 1519 1528 1529 1520 1509 1503 1493 1471 1463 1469 1452 1430 1432 1437 1435 1435 1433 1431 1431 1429 1428 1427 1425 1423 1423 1423 1422 1421 1419 1415 1412 1407 1404 1400 1396 1393 1391 1388 1387 1385 1383 1381 1377 1374 1370 1365 1361 1358 1355 1351 1351 1350 1347 1345 1346 1346 1347 1349 1352 1355 1357 1359 1364 1367 1367 1368 1370 1374 1378 1381 1386
1514 1507 1506 1507 1505 1509 1513 1516 1517 1513 1511 1510 1509 1512 1513 1518 1524 1524 1518 1507 1503 1500 1480 1467 1462 1440 1423 1428 1432 1433 1432 1428 1429 1427 1425 1425 1423 1422 1421 1420 1422 1421 1419 1417 1413 1410 1406 1403 1400 1396 1393 1390 1388 1387 1385 1383 1380 1376 1373 1368 1363 1358 1355 1352 1349 1348 1347 1343 1341 1341 1341 1342 1344 1346 1350 1352 1355 1358 1362 1365 1365 1366 1370 1374 1379 1382
1523 1512 1506 1508 1507 1510 1514 1513 1513 1513 1511 1510 1511 1512 1513 1515 1518 1522 1519 1501 1496 1501 1482 1466 1460 1439 1428 1433 1432 1434 1432 1428 1432 1433 1432 1433 1430 1429 1429 1428 1428 1424 1420 1417 1413 1409 1405 1401 1397 1393 1391 1389 1386 1385 1384 1382 1379 1375 1370 1365 1360 1356 1352 1349 1346 1345 1344 1340 1337 1336 1337 1338 1339 1341 1343 1346 1350 1352 1357 1361 1363 1364 1367 1371 1376 1379
1532 1515 1502 1505 1507 1508 1512 1510 1510 1512 1512 1515 1516 1513 1512 1512 1511 1516 1517 1502 1499 1502 1483 1472 1468 1449 1443 1443 1435 1438 1440 1436 1439 1439 1437 1435 1432 1432 1430 1428 1427 1423 1419 1415 1410 1407 1403 1399 1396 1392 1390 1388 1386 1385 1383 1380 1377 1372 1368 1363 1359 1355 1351 1348 1344 1342 1342 1339 1335 1333 1333 1334 1334 1336 1339 1342 1346 1349 1352 1356 1358 1361 1364 1367 1372 1376
1535 1518 1500 1499 1504 1507 1509 1510 1512 1512 1513 1517 1518 1514 1513 1517 1518 1517 1515 1508 1509 1507 1491 1484 1475 1452 1446 1446 1440 1444 1447 1441 1442 1440 1436 1434 1432 1432 1429 1425 1423 1419 1416 1412 1407 1404 1401 1398 1396 1392 1389 1387 1385 1383 1381 1378 1374 1370 1366 1361 1357 1354 1350 1346 1343 1340 1339 1338 1334 1330 1329 1331 1331 1332 1335 1338 1342 1345 1347 1350 1353 1356 1360 1364 1368 1372
1533 1524 1506 1497 1503 1508 1507 1510 1515 1514 1514 1516 1518 1517 1515 1519 1523 1523 1519 1513 1516 1514 1500 1495 1484 1457 1449 1452 1449 1450 1448 1443 1442 1439 1436 1435 1432 1430 1427 1423 1420 1416 1412 1408 1405 1401 1398 1396 1394 1390 1388 1384 1382 1380 1377 1375 1371 1367 1363 1359 1355 1351 1347 1344 1340 1337 1335 1334 1331 1328 1326 1327 1327 1328 1330 1333 1336 1339 1341 1344 1348 1352 1356 1360 1364 1367
1531 1530 1514 1497 1499 1507 1509 1513 1516 1515 1518 1519 1519 1520 1522 1523 1522 1522 1517 1508 1513 1515 1505 1504 1493 1464 1454 1458 1454 1451 1448 1444 1442 1438 1436 1434 1431 1429 1425 1420 1417 1412 1409 1405 1402 1399 1395 1393 1390 1387 1385 1382 1379 1377 1374 1371 1368 1364 1360 1357 1353 1349 1344 1340 1337 1334 1330 1328 1327 1324 1323 1323 1323 1324 1326 1328 1331 1333 1336 1340 1343 1347 1351 1355 1359 1362
1530 1530 1522 1507 1504 1508 1510 1512 1512 1514 1518 1518 1519 1522 1524 1525 1525 1528 1521 1506 1506 1509 1505 1508 1493 1462 1455 1459 1454 1451 1448 1444 1441 1438 1434 1431 1429 1426 1421 1417 1413 1408 1405 1402 1398 1395 1392 1389 1386 1383 1381 1378 1375 1373 1370 1367 1364 1360 1357 1354 1351 1347 1343 1338 1335 1332 1328 1324 1321 1319 1317 1318 1318 1319 1321 1323 1325 1328 1331 1335 1338 1342 1346 1350 1353 1357
1530 1531 1529 1519 1511 1510 1509 1508 1510 1513 1513 1514 1519 1521 1522 1523 1525 1532 1528 1514 1510 1507 1502 1504 1488 1457 1452 1458 1453 1450 1448 1443 1440 1436 1431 1427 1426 1423 1418 1414 1410 1405 1401 1398 1395 1392 1388 1385 1382 1378 1376 1374 1371 1368 1366 1363 1360 1357 1354 1351 1348 1344 1340 1337 1333 1329 1325 1320 1316 1313 1311 1311 1312 1313 1315 1317 1320 1323 1325 1329 1333 1337 1340 1344 1348 1352
1528 1529 1530 1523 1512 1507 1506 1507 1509 1509 1510 1516 1520 1519 1521 1521 1520 1523 1520 1513 1514 1509 1503 1502 1484 1455 1450 1455 1451 1448 1445 1442 1438 1433 1429 1425 1421 1419 1415 1410 1405 1401 1396 1393 1391 1388 1384 1381 1377 1374 1372 1369 1366 1364 1362 1359 1356 1353 1350 1347 1345 1341 1337 1334 1330 1325 1321 1316 1312 1308 1305 1304 1305 1307 1309 1312 1314 1317 1320 1323 1327 1331 1335 1339 1343 1347
1528 1527 1529 1529 1522 1512 1506 1508 1510 1507 1509 1518 1521 1519 1517 1515 1513 1515 1512 1511 1512 1506 1499 1498 1481 1456 1449 1451 1447 1445 1443 1439 1436 1431 1428 1423 1417 1414 1411 1407 1402 1397 1392 1389 1386 1383 1380 1377 1373 1369 1367 1364 1361 1358 1356 1354 1352 1348 1346 1343 1340 1336 1333 1330 1326 1322 1317 1313 1309 1305 1302 1300 1300 1302 1304 1306 1309 1312 1316 1319 1323 1326 1330 1334 1339 1343
1530 1530 1531 1535 1536 1530 1521 1518 1517 1513 1513 1516 1519 1518 1513 1508 1510 1512 1512 1514 1511 1500 1495 1494 1478 1456 1448 1448 1445 1443 1440 1435 1432 1429 1425 1421 1415 1409 1405 1403 1399 1393 1388 1385 1382 1379 1375 1372 1368 1364 1361 1358 1355 1352 1350 1348 1346 1343 1340 1338 1335 1331 1328 1325 1322 1319 1315 1311 1307 1303 1300 1298 1297 1298 1300 1302 1304 1308 1312 1315 1319 1322 1326 1330 1334 1338
1532 1533 1531 1531 1533 1532 1527 1522 1519 1519 1519 1520 1521 1519 1511 1506 1507 1510 1515 1514 1505 1498 1494 1487 1473 1457 1448 1447 1443 1439 1436 1432 1428 1426 1423 1417 1411 1406 1402 1398 1393 1388 1384 1380 1377 1374 1370 1365 1362 1358 1354 1351 1348 1346 1344 1342 1340 1337 1334 1331 1330 1327 1323 1321 1318 1316 1313 1309 1305 1301 1298 1296 1295 1294 1296 1298 1300 1303 1307 1311 1314 1317 1320 1325 1329 1333
1533 1534 1530 1527 1526 1524 1523 1520 1518 1519 1520 1520 1522 1519 1510 1505 1504 1508 1513 1506 1499 1500 1492 1475 1468 1461 1451 1446 1441 1434 1431 1428 1424 1424 1421 1415 1409 1404 1398 1391 1385 1380 1376 1372 1370 1367 1363 1358 1355 1351 1347 1344 1342 1339 1338 1336 1334 1332 1329 1326 1324 1322 1320 1317 1314 1312 1309 1306 1302 1298 1295 1293 1292 1291 1292 1294 1296 1298 1301 1305 1308 1311 1315 1319 1323 1327
1533 1534 1529 1525 1522 1521 1522 1520 1518 1519 1519 1519 1520 1514 1506 1504 1504 1505 1505 1497 1494 1498 1485 1467 1465 1462 1451 1445 1440 1433 1428 1424 1421 1421 1419 1413 1407 1400 1392 1384 1377 1372 1366 1362 1360 1357 1355 1351 1347 1344 1340 1336 1335 1332 1331 1329 1327 1326 1324 1321 1318 1317 1315 1313 1311 1308 1306 1303 1298 1294 1291 1290 1289 1287 1287 1288 1290 1292 1295 1299 1302 1305 1309 1313 1317 1320
1530 1530 1527 1524 1522 1520 1520 1518 1517 1517 1518 1517 1515 1508 1503 1503 1501 1500 1498 1490 1488 1488 1475 1463 1462 1458 1450 1444 1437 1431 1426 1420 1418 1417 1413 1408 1402 1394 1386 1377 1370 1364 1358 1353 1350 1347 1345 1342 1339 1337 1333 1330 1327 1326 1324 1322 1320 1319 1318 1315 1313 1311 1310 1308 1307 1304 1302 1299 1295 1291 1289 1287 1285 1283 1281 1282 1284 1286 1288 1292 1296 1300 1303 1307 1311 1315
1527 1527 1524 1523 1523 1519 1515 1515 1515 1515 1518 1517 1510 1502 1501 1502 1499 1495 1492 1486 1484 1481 1469 1461 1461 1454 1446 1441 1435 1430 1422 1414 1412 1412 1406 1401 1396 1389 1380 1371 1363 1358 1351 1344 1340 1338 1336 1334 1332 1329 1327 1324 1321 1319 1317 1315 1313 1312 1311 1310 1308 1306 1305 1304 1302 1300 1298 1295 1292 1288 1286 1283 1281 1278 1275 1276 1278 1280 1282 1286 1290 1294 1297 1301 1305 1310
1525 1525 1522 1523 1526 1519 1511 1512 1512 1512 1514 1511 1503 1499 1499 1497 1495 1491 1487 1484 1483 1476 1465 1463 1462 1451 1440 1437 1434 1428 1419 1407 1404 1406 1402 1395 1390 1383 1374 1365 1356 1348 1343 1337 1333 1332 1330 1328 1326 1324 1321 1318 1315 1313 1311 1309 1306 1304 1303 1303 1302 1300 1300 1299 1297 1296 1293 1290 1288 1285 1282 1280 1277 1273 1270 1270 1272 1274 1276 1280 1283 1288 1292 1295 1299 1304
1523 1524 1522 1525 1527 1518 1509 1510 1512 1512 1509 1497 1489 1493 1495 1492 1491 1489 1483 1481 1480 1473 1466 1463 1458 1446 1438 1436 1431 1425 1415 1401 1395 1400 1401 1393 1386 1377 1365 1357 1350 1343 1340 1337 1333 1331 1330 1326 1323 1321 1317 1315 1312 1309 1307 1304 1301 1298 1297 1297 1296 1295 1294 1293 1291 1290 1287 1284 1282 1280 1278 1277 1273 1269 1266 1264 1266 1269 1272 1274 1278 1282 1286 1289 1294 1300
1520 1522 1523 1524 1525 1519 1511 1510 1512 1511 1503 1488 1482 1488 1492 1490 1490 1488 1481 1477 1476 1472 1466 1459 1451 1444 1438 1435 1429 1423 1415 1400 1389 1395 1403 1394 1383 1375 1361 1350 1347 1343 1338 1336 1332 1328 1325 1321 1317 1314 1311 1308 1306 1303 1302 1300 1297 1293 1291 1291 1291 1289 1288 1286 1284 1282 1280 1277 1276 1276 1275 1273 1269 1264 1261 1259 1261 1264 1267 1270 1272 1276 1280 1284 1289 1294
1519 1521 1523 1523 1525 1522 1514 1512 1514 1506 1493 1485 1484 1485 1487 1487 1486 1483 1478 1474 1472 1469 1463 1456 1450 1444 1437 1432 1427 1421 1415 1402 1383 1381 1396 1395 1379 1371 1364 1353 1348 1345 1338 1333 1329 1322 1318 1316 1311 1306 1301 1298 1295 1293 1293 1292 1290 1287 1283 1283 1285 1283 1282 1280 1277 1275 1273 1272 1271 1271 1271 1268 1264 1260 1257 1255 1257 1259 1262 1265 1268 1271 1275 1279 1283 1287
1517 1520 1522 1522 1524 1523 1517 1515 1512 1499 1487 1486 1486 1482 1483 1484 1482 1481 1477 1471 1468 1466 1461 1455 1448 1441 1434 1428 1424 1418 1415 1407 1378 1355 1369 1388 1380 1370 1368 1359 1352 1347 1339 1333 1329 1321 1316 1313 1308 1303 1297 1291 1287 1286 1284 1281 1281 1279 1274 1273 1276 1276 1274 1273 1270 1268 1267 1267 1266 1267 1266 1264 1261 1257 1253 1252 1253 1254 1257 1260 1264 1267 1270 1274 1278 1282
1514 1517 1519 1521 1519 1517 1519 1516 1508 1499 1493 1488 1483 1480 1481 1481 1480 1482 1478 1468 1463 1462 1459 1453 1445 1439 1433 1424 1419 1416 1411 1406 1378 1338 1333 1359 1370 1368 1365 1359 1353 1348 1338 1332 1327 1319 1314 1310 1303 1298 1292 1285 1281 1279 1276 1273 1272 1270 1265 1263 1266 1267 1266 1265 1263 1261 1262 1261 1261 1261 1261 1261 1259 1255 1251 1249 1249 1250 1252 1256 1259 1263 1266 1269 1273 1277
1512 1512 1513 1517 1515 1512 1517 1517 1512 1510 1502 1487 1478 1477 1478 1477 1477 1479 1477 1466 1458 1457 1455 1451 1443 1437 1431 1423 1418 1415 1408 1403 1384 1346 1327 1337 1347 1351 1350 1345 1343 1343 1337 1330 1323 1313 1306 1303 1297 1291 1287 1280 1274 1272 1269 1265 1263 1261 1256 1253 1255 1258 1257 1256 1255 1255 1256 1256 1256 1256 1256 1257 1256 1253 1249 1246 1246 1247 1248 1252 1256 1259 1262 1265 1268 1271
1511 1509 1509 1515 1517 1515 1519 1519 1515 1508 1495 1481 1475 1473 1474 1475 1473 1475 1475 1464 1453 1452 1450 1446 1441 1435 1431 1427 1421 1416 1414 1410 1391 1359 1342 1341 1338 1338 1341 1335 1328 1328 1326 1324 1319 1310 1300 1294 1289 1283 1279 1274 1268 1264 1261 1257 1254 1252 1248 1245 1247 1249 1248 1248 1248 1249 1250 1250 1251 1252 1252 1253 1253 1251 1247 1244 1244 1245 1246 1249 1253 1256 1258 1261 1264 1267
1512 1512 1512 1515 1516 1514 1516 1516 1508 1497 1486 1479 1475 1470 1471 1472 1470 1474 1477 1463 1449 1450 1448 1443 1440 1437 1434 1431 1425 1418 1418 1416 1399 1372 1358 1355 1345 1337 1339 1337 1328 1322 1316 1310 1308 1302 1294 1287 1282 1276 1271 1266 1261 1256 1253 1250 1246 1243 1240 1239 1240 1239 1238 1240 1242 1243 1244 1244 1246 1247 1248 1248 1249 1247 1245 1242 1241 1243 1244 1247 1249 1252 1255 1258 1260 1263
1510 1511 1511 1512 1512 1510 1511 1510 1502 1490 1479 1475 1471 1468 1469 1470 1471 1475 1473 1458 1448 1450 1448 1443 1441 1439 1435 1431 1427 1421 1414 1409 1401 1385 1370 1363 1352 1338 1334 1332 1326 1320 1315 1307 1301 1296 1288 1281 1276 1271 1266 1261 1255 1251 1248 1244 1240 1236 1234 1232 1231 1229 1231 1234 1236 1237 1238 1238 1239 1241 1242 1243 1243 1243 1242 1240 1239 1240 1241 1243 1246 1248 1251 1254 1257 1259
1506 1504 1503 1503 1505 1505 1503 1504 1501 1487 1471 1466 1468 1466 1466 1470 1473 1471 1462 1454 1452 1450 1446 1443 1440 1437 1435 1429 1423 1418 1409 1398 1393 1385 1372 1364 1357 1343 1333 1327 1319 1311 1307 1302 1295 1290 1284 1275 1269 1264 1259 1254 1250 1246 1242 1239 1234 1230 1227 1224 1223 1223 1225 1227 1229 1230 1231 1232 1233 1235 1236 1237 1238 1238 1238 1237 1236 1236 1238 1240 1242 1245 1247 1250 1253 1255
1498 1499 1499 1496 1495 1497 1497 1497 1496 1483 1465 1461 1465 1465 1464 1467 1469 1463 1456 1455 1454 1450 1446 1443 1437 1434 1434 1427 1417 1410 1400 1388 1382 1378 1367 1359 1354 1345 1334 1328 1321 1311 1303 1295 1288 1283 1278 1269 1262 1257 1252 1247 1244 1241 1238 1235 1230 1224 1221 1219 1218 1219 1219 1219 1222 1224 1225 1226 1227 1229 1230 1230 1231 1232 1233 1233 1233 1233 1233 1236 1238 1240 1242 1245 1248 1250
1491 1494 1496 1491 1487 1491 1492 1487 1480 1470 1461 1461 1465 1464 1463 1464 1463 1460 1457 1455 1452 1450 1448 1442 1434 1430 1431 1425 1414 1406 1396 1384 1376 1370 1360 1350 1345 1339 1331 1323 1318 1310 1301 1293 1286 1280 1274 1267 1259 1253 1247 1242 1240 1237 1234 1231 1226 1221 1216 1214 1214 1215 1214 1215 1217 1218 1219 1220 1221 1223 1223 1224 1224 1226 1227 1227 1228 1228 1229 1231 1233 1235 1238 1240 1243 1246
1484 1484 1488 1486 1480 1480 1479 1472 1465 1461 1460 1463 1464 1461 1460 1460 1460 1459 1457 1452 1450 1449 1447 1441 1434 1428 1425 1421 1412 1403 1394 1385 1375 1366 1358 1348 1340 1335 1328 1319 1315 1309 1301 1293 1285 1278 1272 1265 1258 1251 1243 1237 1235 1234 1230 1226 1223 1218 1213 1210 1210 1211 1211 1211 1213 1213 1214 1215 1216 1217 1217 1217 1218 1219 1220 1221 1222 1222 1223 1225 1227 1229 1232 1234 1237 1240
1477 1478 1482 1480 1474 1472 1469 1464 1461 1460 1460 1461 1461 1459 1458 1458 1458 1456 1453 1451 1449 1447 1443 1439 1434 1428 1423 1419 1411 1400 1391 1384 1375 1365 1357 1350 1341 1333 1325 1317 1310 1305 1299 1290 1282 1275 1269 1262 1256 1249 1241 1234 1231 1229 1226 1222 1220 1216 1211 1208 1208 1208 1208 1208 1208 1209 1209 1210 1210 1211 1211 1212 1212 1213 1213 1214 1215 1215 1217 1218 1220 1223 1225 1228 1231 1234
1474 1477 1478 1474 1472 1471 1467 1460 1457 1458 1458 1458 1457 1456 1455 1455 1454 1453 1452 1449 1446 1443 1440 1435 1430 1426 1422 1417 1410 1401 1391 1383 1375 1363 1354 1348 1340 1330 1323 1315 1307 1301 1296 1291 1284 1277 1270 1262 1255 1249 1242 1234 1228 1225 1222 1219 1217 1214 1210 1207 1206 1205 1204 1204 1203 1203 1204 1204 1205 1205 1205 1206 1207 1207 1207 1207 1208 1209 1209 1211 1214 1216 1219 1221 1225 1228
1473 1474 1475 1472 1470 1469 1463 1458 1456 1456 1455 1453 1453 1453 1453 1452 1450 1449 1448 1446 1442 1440 1437 1431 1425 1421 1418 1413 1407 1399 1390 1384 1378 1366 1354 1347 1340 1330 1322 1316 1308 1301 1295 1290 1284 1278 1271 1263 1256 1250 1243 1236 1229 1223 1219 1216 1213 1211 1208 1205 1203 1202 1200 1200 1199 1199 1199 1199 1199 1199 1200 1201 1202 1202 1201 1201 1202 1202 1203 1204 1207 1209 1212 1215 1219 1223
1471 1471 1469 1468 1468 1464 1459 1456 1455 1454 1451 1449 1449 1451 1450 1449 1447 1445 1443 1442 1439 1434 1430 1428 1424 1418 1413 1408 1404 1396 1387 1382 1378 1370 1358 1348 1340 1332 1324 1317 1311 1305 1298 1290 1284 1278 1272 1265 1258 1251 1245 1238 1230 1223 1217 1213 1210 1207 1203 1201 1199 1197 1196 1195 1194 1194 1193 1193 1194 1194 1194 1194 1195 1195 1195 1195 1196 1197 1197 1199 1201 1205 1208 1212 1216 1219
1468 1465 1463 1466 1467 1462 1455 1452 1453 1454 1451 1446 1445 1447 1446 1445 1444 1441 1439 1437 1435 1429 1425 1422 1419 1415 1411 1406 1401 1395 1386 1378 1373 1369 1360 1351 1343 1335 1327 1318 1311 1304 1298 1290 1283 1277 1272 1267 1260 1253 1245 1238 1231 1224 1217 1212 1207 1203 1200 1198 1196 1194 1192 1191 1189 1188 1188 1188 1188 1188 1188 1188 1188 1189 1190 1190 1191 1192 1194 1196 1199 1202 1206 1210 1214 1218
1460 1457 1457 1460 1459 1453 1448 1448 1450 1451 1449 1445 1443 1444 1444 1442 1440 1438 1436 1433 1429 1426 1423 1418 1413 1410 1407 1402 1398 1394 1387 1378 1371 1366 1359 1351 1344 1338 1330 1323 1314 1305 1297 1290 1282 1275 1269 1264 1258 1252 1245 1237 1231 1225 1218 1212 1206 1202 1199 1196 1193 1190 1188 1186 1185 1184 1183 1183 1183 1183 1183 1183 1183 1184 1184 1185 1187 1189 1191 1194 1197 1200 1204 1209 1213 1216